INTELSAT 18 (IS-18)

Last updated on Tue Oct 14 2025 00:02:47 GMT+0000 (Coordinated Universal Time)

1 37834U 11056A 25286.58447523 .00000040 00000+0 00000+0 0 9991 2 37834 0.0167 243.7426 0001940 322.0364 207.0521 1.00270416 51333
UTC large
Height (km)
Speed (km/s)
/
Latitude / Longitude
Inclination (degrees)
Orbital Period (minutes)
Azimuth
Elevation
Range (km)
Doppler Factor

Next 0 passes for location: London (51.5072 / 0.1276)

Sorry there are no passes over London.